Location: Camp Creek
(33.9000°N, 111.8167°W)
Time: 23:46:17
(UTC-07:00)

Cosmos 1656 - Visible Passes

Search period start: 25 August 2016 00:00
Search period end: 04 September 2016 00:00
Orbit: 799 x 849 km, 71.1° (Epoch: 25 August)

Date Brightness Start Highest point End Pass type
(mag) Time Alt. Az. Time Alt. Az. Time Alt. Az.
25 Aug 4.1 19:54:14 10° S 19:59:23 37° ESE 20:04:29 10° NE visible
25 Aug 5.7 21:38:28 10° WSW 21:43:03 25° WNW 21:47:37 10° N visible
26 Aug 4.4 19:34:07 10° SSE 19:39:01 31° ESE 19:43:53 10° NE visible
26 Aug 5.5 21:17:42 10° WSW 21:22:34 29° WNW 21:27:25 10° N visible
27 Aug 4.6 19:14:04 10° SSE 19:18:40 26° ESE 19:23:15 10° NE visible
27 Aug 5.3 20:57:00 10° SW 21:02:06 35° WNW 21:07:09 10° N visible
28 Aug 5.0 20:36:21 10° SW 20:41:38 41° WNW 20:46:52 10° N visible
29 Aug 5.1 05:32:10 10° N 05:37:20 42° ENE 05:42:27 10° SE visible
29 Aug 4.7 20:15:46 10° SW 20:21:10 48° WNW 20:26:34 10° N visible
30 Aug 5.4 05:11:53 10° N 05:16:52 36° ENE 05:21:49 10° SE visible
30 Aug 4.4 19:55:13 10° SW 20:00:45 57° WNW 20:06:13 10° NNE visible
31 Aug 5.7 04:51:38 10° N 04:56:24 30° ENE 05:01:07 10° ESE visible
31 Aug 4.1 19:34:43 10° SSW 19:40:18 68° WNW 19:45:51 10° NNE visible
01 Sep 5.9 04:31:25 10° N 04:35:55 26° ENE 04:40:23 10° ESE visible
01 Sep 3.9 19:14:16 10° SSW 19:19:53 81° WNW 19:25:28 10° NNE visible
02 Sep 6.1 04:11:14 10° N 04:15:25 22° ENE 04:19:34 10° ESE visible
02 Sep 6.9 20:41:51 10° WNW 20:43:47 12° NW 20:45:42 10° NNW visible
03 Sep 6.3 03:51:08 10° NNE 03:54:54 19° ENE 03:58:39 10° ESE visible
03 Sep 3.8 05:33:34 10° NNW 05:38:46 49° WSW 05:43:58 10° S visible
03 Sep 6.7 20:20:25 10° W 20:23:14 14° NW 20:26:02 10° NNW visible
